ATLAS 5 CENTAUR DEB, 43968

Orbit data source: Space-Track

ATLAS 5 CENTAUR DEB, 43968 is space debris in HEO originally from a launch on Wed, 17 Sep 2014 UTC launched from the Air Force Eastern Test Range (AFETR). Debris objects in space refer to the collection of defunct objects orbiting the Earth. Examples of debris include non-operational satellites, rocket bodies, and fragments generated from explosions, collisions, or faulty payload assembly.

Loading next visibility...
Identifier
43968, 2014-055X
Orbit
HEO
Country
Flag of USUS
Related business
Flag of USUnited Launch Alliance/Lockheed Martin (US)
Manufacturer
Unknown
Mission
Spacecraft
Bus & Motor
Unknown
Mass
Unknown
Launch date (UTC)
2014-09-17 (11 years ago)
Launch vehicle
Unknown
Launch site
Air Force Eastern Test Range (AFETR)
Object type
Payload
Rocket body
Debris
Shape & HBR
Unknown shape, 1.1 m
Radar Cross Section
Small (<0.1 m²)

Expand to show TLE details & history
Last TLE update: 1 day ago

TLE from 1 day ago
0 ATLAS 5 CENTAUR DEB
1 43968U 14055X   26072.41166521 -.00000093  00000-0  00000-0 0  9991
2 43968  20.1427 140.9262 5050885 168.0907 210.7750  1.83129406 50320
Epoch: 2026-03-13T09:52Z
TLE epoch observation values (Epoch: 2026-03-13T09:52:47.874Z)
Latitude
0.00006°
Longitude
-178.30794°
Altitude
35,195.19 km
Speed
2.248 km/s
True Right ascension
09h 23m 45s
True Declination
0° 00' 00"
Sunlit
Object was in daylight at epoch
Visualization orbit readout
Latitude
Unknown
Longitude
Unknown
Altitude
Unknown
Speed
Unknown
Apparent Right ascension
Unknown
Apparent Declination
Unknown
Sunlit
N/A
Visualization observer readout
Local Sidereal Time
15:12:30
Azimuth
Unknown
Elevation
Unknown
Doppler factor
Unknown
Orbital elements
Apogee altitude
36,099.088 km
Perigee altitude
7,589.458 km
Semi-major axis
28,222.41 km
Eccentricity
0.50509
Inclination
20.1427°
RAAN
140.9262°
Arg. of periapsis
168.0907°
True anomaly
191.89587°
Mean anomaly
210.775°
Eccentric anomaly
200.59518°
Mean motion
0.45777 °/min
Orbital period
786.41 mins
BSTAR
0
Loading maneuver chart data...
Computing Atmospheric mass density...

Documentation

Showing up to 5 results
|